sat.trackr.live / text

‹ back to catalog

STARLINK-35050

NORAD 65440 · 2025-194G

PAYLOAD ACTIVE UNKNOWN

§ Identity

Operator
Country
US
Launch date
2025-09-03
Launch site
AFWTR
Launch vehicle
Mass (kg)
RCS (m²)

Purposes: comms

External: N2YO · Heavens-Above · Gunter

§ Orbital elements

Epoch: 2026-09-20T13:58:31.669536Z

Period
93.91 min
Inclination
97.2845°
Eccentricity
0.0002001
Mean motion
15.33445516 rev/d
Perigee alt
464.2 km
Apogee alt
466.9 km
Semi-major
6,843.7 km
B*
2.8048e-4
RAAN
113.2749°
Arg perigee
92.4065°
Mean anomaly
267.7407°
Rev number
5,908

§ Raw data

STARLINK-350501 65440U 25194G   26263.58231099  .00008991  00000+0  28048-3 0  99972 65440  97.2845 113.2749 0002001  92.4065 267.7407 15.33445516 59084

JSON: /api/v1/satellites/65440 · /tle

For live sub-satellite position, see the globe view (requires WebGL).

§ Visibility from observer

Set your observer location to see the next 7 days of passes ≥ 10°. The values pass through the URL so the page stays shareable.

No JS? Fill the form by hand. The geolocation button needs JavaScript.